Location: Barrio de Buenos Aires
(28.4500°N, 16.2667°W)
Time: 06:25:21
(UTC+00:00)

NOSS 3-2 (A) - Pass Details

Date: 24 January 2020
Orbit: 810 x 1398 km, 63.4° (Epoch: 10 February)

Event Time Altitude Azimuth Distance (km) Brightness Sun altitude
Rises 20:28:19 0° 207° (SSW) 3,314 6.8 -24.2°
Reaches altitude 10° 20:30:40 10° 207° (SSW) 2,399 6.0 -24.7°
Maximum altitude 20:36:08 90° 250° (WSW) 857 3.1 -25.9°
Enters shadow 20:37:12 62° 27° (NNE) 971 3.2 -26.2°
